TimeCET,TemperatureF,Dew PointF,Humidity,Sea Level PressureIn,VisibilityMPH,Wind Direction,Wind SpeedMPH,Gust SpeedMPH,PrecipitationIn,Events,Conditions,WindDirDegrees,DateUTC
12:00 AM,21.2,17.6,86,30.63,-9999.0,Variable,2.3,-,N/A,,Mist,0,2011-11-12 23:00:00
12:30 AM,24.8,21.2,86,30.63,-9999.0,NNW,4.6,-,N/A,,Mist,340,2011-11-12 23:30:00
1:00 AM,24.8,21.2,86,30.63,-9999.0,Variable,3.5,-,N/A,,Mist,0,2011-11-13 00:00:00
1:30 AM,23.0,19.4,86,30.63,-9999.0,Variable,1.2,-,N/A,,Mist,0,2011-11-13 00:30:00
2:00 AM,21.2,19.4,93,30.63,2.5,North,4.6,-,N/A,,Mist,350,2011-11-13 01:00:00
2:30 AM,19.4,15.8,86,30.63,2.5,Variable,2.3,-,N/A,,Mist,0,2011-11-13 01:30:00
3:00 AM,23.0,21.2,93,30.63,2.5,NNW,4.6,-,N/A,,Mist,340,2011-11-13 02:00:00
3:30 AM,23.0,19.4,86,30.63,2.5,North,4.6,-,N/A,,Mist,360,2011-11-13 02:30:00
4:00 AM,23.0,19.4,86,30.63,2.5,Variable,1.2,-,N/A,,Mist,0,2011-11-13 03:00:00
4:30 AM,19.4,17.6,93,30.63,2.5,Variable,1.2,64.4,N/A,,Mist,0,2011-11-13 03:30:00
5:00 AM,21.2,17.6,86,30.63,2.5,Calm,Calm,-,N/A,,Mist,0,2011-11-13 04:00:00
5:30 AM,19.4,15.8,86,30.63,2.5,Calm,Calm,-,N/A,,Mist,0,2011-11-13 04:30:00
6:00 AM,19.4,15.8,86,30.63,2.5,Calm,Calm,-,N/A,,Mist,0,2011-11-13 05:00:00
6:30 AM,19.4,15.8,86,30.63,2.5,Variable,3.5,-,N/A,,Mist,0,2011-11-13 05:30:00
7:00 AM,19.4,15.8,86,30.63,2.5,Variable,2.3,-,N/A,,Mist,0,2011-11-13 06:00:00
7:30 AM,19.4,15.8,86,30.63,3.7,Variable,1.2,-,N/A,,Unknown,0,2011-11-13 06:30:00
8:00 AM,24.8,21.2,86,30.63,3.7,Variable,1.2,-,N/A,,Unknown,0,2011-11-13 07:00:00
8:30 AM,30.2,24.8,80,30.63,3.7,Calm,Calm,-,N/A,,Unknown,0,2011-11-13 07:30:00
9:00 AM,32.0,24.8,75,30.63,3.7,Variable,2.3,-,N/A,,Unknown,0,2011-11-13 08:00:00
9:30 AM,33.8,26.6,75,30.63,3.7,Variable,2.3,-,N/A,,Unknown,0,2011-11-13 08:30:00
10:00 AM,37.4,26.6,65,30.63,3.7,Variable,3.5,-,N/A,,Unknown,0,2011-11-13 09:00:00
10:30 AM,41.0,26.6,57,30.63,3.7,Variable,3.5,-,N/A,,Unknown,0,2011-11-13 09:30:00
11:00 AM,42.8,26.6,53,30.63,3.7,South,4.6,-,N/A,,Unknown,180,2011-11-13 10:00:00
11:30 AM,44.6,26.6,49,30.63,3.7,SSW,4.6,-,N/A,,Unknown,210,2011-11-13 10:30:00
12:00 PM,44.6,24.8,46,30.60,3.7,SW,5.8,-,N/A,,Unknown,230,2011-11-13 11:00:00
12:30 PM,46.4,24.8,43,30.60,3.7,SSW,4.6,-,N/A,,Unknown,200,2011-11-13 11:30:00
1:00 PM,46.4,24.8,43,30.57,3.7,SSW,5.8,-,N/A,,Unknown,210,2011-11-13 12:00:00
1:30 PM,46.4,24.8,43,30.57,3.7,SSW,5.8,-,N/A,,Unknown,200,2011-11-13 12:30:00
2:00 PM,46.4,24.8,43,30.57,4.3,SSW,5.8,-,N/A,,Unknown,210,2011-11-13 13:00:00
2:30 PM,46.4,26.6,46,30.57,4.3,SSW,5.8,-,N/A,,Unknown,200,2011-11-13 13:30:00
3:00 PM,46.4,26.6,46,30.57,4.3,SSW,5.8,-,N/A,,Unknown,210,2011-11-13 14:00:00
3:30 PM,46.4,26.6,46,30.57,4.3,SSW,5.8,-,N/A,,Unknown,210,2011-11-13 14:30:00
4:00 PM,44.6,26.6,49,30.57,4.3,South,4.6,-,N/A,,Unknown,180,2011-11-13 15:00:00
4:30 PM,41.0,24.8,53,30.57,3.7,Variable,3.5,-,N/A,,Unknown,0,2011-11-13 15:30:00
5:00 PM,37.4,24.8,60,30.57,3.7,Variable,3.5,-,N/A,,Unknown,0,2011-11-13 16:00:00
5:30 PM,33.8,23.0,65,30.54,5.0,Variable,2.3,-,N/A,,Unknown,0,2011-11-13 16:30:00
6:00 PM,32.0,21.2,64,30.57,5.0,Variable,3.5,-,N/A,,Unknown,0,2011-11-13 17:00:00
6:30 PM,30.2,21.2,69,30.57,5.0,Variable,2.3,-,N/A,,Unknown,0,2011-11-13 17:30:00
7:00 PM,32.0,26.6,80,30.57,5.0,Variable,1.2,-,N/A,,Unknown,0,2011-11-13 18:00:00
7:30 PM,26.6,21.2,80,30.54,5.0,Variable,2.3,-,N/A,,Unknown,0,2011-11-13 18:30:00
8:00 PM,26.6,21.2,80,30.54,3.7,Variable,3.5,-,N/A,,Unknown,0,2011-11-13 19:00:00
8:30 PM,26.6,21.2,80,30.54,3.1,Variable,2.3,-,N/A,,Mist,0,2011-11-13 19:30:00
9:00 PM,24.8,21.2,86,30.54,2.8,Variable,2.3,-,N/A,,Mist,0,2011-11-13 20:00:00
9:30 PM,23.0,19.4,86,30.54,2.8,Variable,2.3,-,N/A,,Mist,0,2011-11-13 20:30:00
10:00 PM,24.8,19.4,80,30.54,2.8,Variable,2.3,-,N/A,,Mist,0,2011-11-13 21:00:00
10:30 PM,28.4,23.0,80,30.54,2.8,Variable,2.3,-,N/A,,Mist,0,2011-11-13 21:30:00
11:00 PM,23.0,19.4,86,30.54,2.8,Variable,2.3,-,N/A,,Mist,0,2011-11-13 22:00:00
11:30 PM,24.8,21.2,86,30.54,2.8,Variable,1.2,-,N/A,,Mist,0,2011-11-13 22:30:00